#timestamp,LO_Frequency,Hit,StdDev 
1578765615.7,286046999.4,N
1578765635.5,286046993.5,N
1578765655.3,286046989.7,N
1578765675.2,286046997.6,N
1578765695.0,286047000.9,N
1578765695.9,286047000.9,N
1578765715.7,286046996.0,N
1578765735.6,286046998.5,N
1578765755.4,286046999.0,N
1578765775.3,286046993.4,N
1578765795.1,286047000.5,N
1578765796.0,286047000.5,N
1578765815.8,286046993.8,N
1578765835.7,286046994.6,N
1578765855.5,286046990.2,N
1578765875.3,286046992.4,N
1578765895.2,286046997.7,N
1578765915.0,286046998.3,N
1578765915.9,286046998.3,N
1578765935.8,286047002.5,N
1578765955.6,286046999.5,N
1578765975.4,286046998.2,N
1578765995.3,286046997.0,N
1578766015.1,286046998.3,N
1578766035.8,286046996.7,N
1578766055.7,286047004.4,N
1578766075.5,286047001.4,N
1578766095.4,286047013.8,Y
1578766115.2,286047015.5,P
1578766135.0,286047010.4,N
1578766135.9,286047010.4,N
1578766155.8,286047008.2,N
1578766175.6,286047010.6,N
1578766195.5,286047008.7,N
1578766215.3,286047008.5,N
1578766235.1,286047005.2,N
1578766255.9,286047002.2,N
1578766275.7,286046997.1,N
1578766295.5,286046988.5,N
1578766315.4,286046996.5,N
1578766335.2,286046996.6,N
1578766355.1,286047001.8,N
1578766356.0,286047001.8,N
1578766375.8,286046996.3,N
1578766395.6,286046991.8,N
1578766415.5,286046996.1,N
1578766435.3,286046997.8,N
1578766455.2,286047007.6,N
1578766475.9,286047002.7,N
1578766495.7,286046998.8,N
1578766515.6,286046996.6,N
1578766535.4,286047003.8,N
1578766555.2,286047000.6,N
1578766575.1,286047005.3,N
1578766576.0,286047005.3,N
1578766595.8,286047010.8,N
1578766615.7,286047003.3,N
1578766635.5,286046998.6,N
1578766655.3,286047009.2,N
1578766675.2,286047009.0,N
1578766695.0,286047012.2,N
1578766695.9,286047012.2,N
1578766715.7,286047006.3,N
1578766735.6,286047010.3,N
1578766755.4,286047013.8,N
1578766775.3,286047010.1,N
1578766795.1,286047004.1,N
1578766796.0,286047004.1,N
1578766815.8,286047004.2,N
1578766835.7,286047013.8,N
1578766855.5,286047010.5,N
1578766875.3,286047008.6,N
1578766895.2,286047007.8,N
1578766915.0,286047012.5,N
1578766915.9,286047012.5,N
1578766935.8,286047018.6,Y
1578766955.6,286047011.4,P
1578766975.4,286047013.8,P
1578766995.3,286047006.8,N
1578767015.1,286046998.9,N
1578767035.9,286046997.2,N
1578767055.7,286046997.2,N
1578767075.5,286047007.1,N
1578767095.4,286047003.5,N
1578767115.2,286047003.5,N
1578767135.0,286047005.3,N
1578767135.9,286047005.3,N
1578767155.8,286047002.8,N
1578767175.6,286047008.7,N
1578767195.4,286047012.4,N
1578767215.3,286047008.1,N
1578767235.1,286047010.1,N
1578767255.9,286047014.6,Y
1578767275.7,286047000.2,P
1578767295.5,286047002.0,N
1578767315.4,286047012.2,P
1578767335.2,286047009.4,N
1578767355.1,286047008.4,N
1578767356.0,286047008.4,N
1578767375.8,286047023.0,Y
1578767395.6,286047019.9,P
1578767415.5,286047023.5,P
1578767435.3,286047030.0,P
1578767455.2,286047033.6,Y
1578767475.9,286047014.7,P
1578767495.7,286047008.8,P
1578767515.6,286047009.2,N
1578767535.4,286047007.7,N
1578767555.2,286047001.4,N
1578767575.1,286047004.1,N
1578767576.0,286047011.9,N
1578767595.8,286047001.0,N
1578767615.7,286047006.0,N
1578767635.5,286047001.3,N
1578767655.3,286046994.5,N
1578767675.2,286046988.7,N
1578767695.0,286046992.6,N
1578767695.9,286046992.6,N
1578767715.7,286046991.2,N
1578767735.6,286046988.6,N
1578767755.4,286047000.1,N
1578767775.3,286047009.5,N
1578767795.1,286047012.0,N
1578767796.0,286047012.0,N
1578767815.8,286047009.4,N
1578767835.7,286047017.0,N
1578767855.5,286047008.3,N
1578767875.3,286047003.9,N
1578767895.2,286047007.9,N
1578767915.0,286047005.2,N
1578767915.9,286047005.2,N
1578767935.8,286047000.7,N
1578767955.6,286046999.1,N
1578767975.4,286047003.2,N
1578767995.3,286047008.1,N
1578768015.1,286047013.5,N
1578768035.8,286047019.6,N
1578768055.7,286047021.3,N
1578768075.5,286047026.2,Y
1578768095.4,286047036.3,P
1578768115.2,286047034.9,N
1578768135.0,286047028.5,N
1578768135.9,286047028.5,N
1578768155.8,286047032.8,N
1578768175.6,286047021.1,N
1578768195.5,286047019.9,N
1578768215.3,286047017.9,N
1578768235.1,286047011.9,N
1578768255.9,286047015.7,N
1578768275.7,286047014.0,N
1578768295.5,286047009.7,N
1578768315.4,286047014.3,N
1578768335.2,286047016.8,N
1578768355.1,286047009.9,N
1578768356.0,286047009.9,N
1578768375.8,286047016.5,N
1578768395.6,286047013.8,N
1578768415.5,286047006.0,N
1578768435.3,286047004.6,N
1578768455.1,286047009.8,N
1578768475.9,286047006.2,N
1578768495.7,286047001.7,N
1578768515.6,286047005.1,N
1578768535.4,286046999.2,N
1578768555.2,286047001.0,N
1578768575.1,286047000.3,N
1578768576.0,286047000.3,N
1578768595.8,286046998.6,N
1578768615.7,286047004.0,N
1578768635.5,286047008.8,N
1578768655.3,286047005.1,N
1578768675.2,286047000.6,N
1578768695.0,286046997.3,N
1578768695.9,286046997.3,N
1578768715.7,286046993.9,N
1578768735.6,286046995.7,N
1578768755.4,286046998.9,N
1578768775.3,286046995.3,N
1578768795.1,286046996.4,N
1578768815.9,286046994.5,N
1578768835.7,286046989.5,N
1578768855.5,286046985.3,N
1578768875.4,286046989.0,N
1578768895.2,286046990.9,N
1578768915.0,286046988.8,N
1578768916.0,286046988.8,N
1578768935.8,286046989.6,N
1578768955.6,286046987.9,N
1578768975.5,286046985.8,N
1578768995.3,286046983.7,N
1578769015.1,286046984.6,N
1578769035.9,286046989.7,N
1578769055.7,286046995.0,N
1578769075.6,286046995.1,N
1578769095.4,286047003.9,N
1578769115.2,286047001.8,N
1578769135.1,286047006.3,N
1578769136.0,286047006.3,N
1578769155.8,286047002.9,N
1578769175.6,286046997.6,N
1578769195.5,286047000.2,N
